Weather History for Salem, IL

Change the Weather History Date:

Friday, February 14, 2014

  Actual Average Record
Temperature  
Mean Temperature 24 °F -  
Max Temperature 34 °F 44 °F 68 °F (1962)
Min Temperature 14 °F 25 °F 10 °F (1968)
Degree Days  
Heating Degree Days 41    
Moisture  
Dew Point 23 °F    
Average Humidity 85    
Maximum Humidity 95    
Minimum Humidity 69    
Precipitation  
Precipitation 0.04 in - - ()
Sea Level Pressure  
Sea Level Pressure 29.80 in    
Wind  
Wind Speed 8 mph (North)    
Max Wind Speed 18 mph    
Max Gust Speed 26 mph    
Visibility 7 miles    
Events Snow    
Averages and records for this station are not official NWS values.
T = Trace of Precipitation, MM = Missing Value Source: NWS Daily Summary

Daily Weather History Graph

Daily Weather History Graph

Search for Another Location

Airport:

Trip Planner

Search our weather history database for the weather conditions in past years. The results will help you decide how hot, cold, wet, or windy it might be!

Date:

Astronomy

Feb. 14, 2014 Rise Set
Actual Time 6:47 AM CST 5:32 PM CST
Civil Twilight 6:20 AM CST 5:59 PM CST
Nautical Twilight 5:49 AM CST 6:31 PM CST
Astronomical Twilight 5:18 AM CST 7:01 PM CST
Moon 5:35 PM CST (2/14) 6:15 AM CST (2/14)
Length of Visible Light 11h 39m
Length of Day
10h 44m
Full, 100% of the Moon is Illuminated
Feb 14
Full
Feb 14
Full
Feb 22
Last Quarter
Mar 1
New
Mar 8
First Quarter

Hourly Weather History & Observations

Time (CST) Temp. Windchill Dew Point Humidity Pressure Visibility Wind Dir Wind Speed Gust Speed Precip Events Conditions
12:15 AM 34.9 °F 28.3 °F 28.6 °F 78% 29.75 in 10.0 mi West 8.1 mph - N/A   Clear
12:35 AM 34.7 °F 27.5 °F 28.8 °F 79% 29.75 in 10.0 mi West 9.2 mph - N/A   Clear
12:55 AM 34.3 °F 28.4 °F 28.8 °F 80% 29.75 in 10.0 mi West 6.9 mph - N/A   Clear
1:15 AM 34.0 °F 28.0 °F 28.6 °F 81% 29.75 in 10.0 mi West 6.9 mph - N/A   Clear
1:35 AM 33.8 °F 27.7 °F 28.4 °F 81% 29.75 in 10.0 mi West 6.9 mph - N/A   Clear
1:55 AM 33.3 °F 27.1 °F 28.6 °F 83% 29.75 in 10.0 mi West 6.9 mph - N/A   Clear
2:15 AM 33.8 °F 27.7 °F 28.8 °F 82% 29.75 in 10.0 mi West 6.9 mph - N/A   Clear
2:35 AM 33.4 °F 28.1 °F 28.8 °F 83% 29.74 in 10.0 mi West 5.8 mph - N/A   Clear
2:55 AM 33.8 °F 28.6 °F 28.9 °F 82% 29.74 in 10.0 mi WNW 5.8 mph - N/A   Clear
3:15 AM 34.2 °F 30.0 °F 29.3 °F 82% 29.73 in 10.0 mi WNW 4.6 mph - N/A   Clear
3:35 AM 34.2 °F 30.0 °F 29.3 °F 82% 29.72 in 10.0 mi WNW 4.6 mph - N/A   Clear
3:55 AM 32.0 °F 28.7 °F 27.9 °F 85% 29.73 in 10.0 mi WNW 3.5 mph - N/A   Clear
4:15 AM 30.2 °F - 27.1 °F 88% 29.73 in 7.0 mi Calm Calm - N/A   Scattered Clouds
4:35 AM 31.1 °F 26.4 °F 28.0 °F 88% 29.75 in 7.0 mi West 4.6 mph - N/A   Mostly Cloudy
4:55 AM 29.5 °F - 27.0 °F 90% 29.75 in 7.0 mi Calm Calm - N/A   Mostly Cloudy
5:15 AM 30.0 °F - 27.3 °F 90% 29.76 in 7.0 mi Calm Calm - N/A   Mostly Cloudy
5:35 AM 31.6 °F 27.0 °F 28.2 °F 87% 29.76 in 7.0 mi North 4.6 mph - N/A   Scattered Clouds
5:55 AM 31.6 °F 28.3 °F 27.1 °F 83% 29.75 in 10.0 mi NNE 3.5 mph - N/A   Mostly Cloudy
6:15 AM 31.1 °F 25.4 °F 26.4 °F 83% 29.77 in 10.0 mi North 5.8 mph - N/A   Overcast
6:35 AM 30.2 °F - 26.6 °F 86% 29.78 in 10.0 mi Calm Calm - N/A   Overcast
6:55 AM 30.4 °F 23.6 °F 25.7 °F 83% 29.80 in 10.0 mi NNW 6.9 mph - N/A   Overcast
7:15 AM 29.7 °F 24.7 °F 25.2 °F 83% 29.77 in 10.0 mi NNE 4.6 mph - N/A   Overcast
7:35 AM 30.0 °F 26.5 °F 22.8 °F 75% 29.75 in 10.0 mi NE 3.5 mph - N/A   Overcast
7:55 AM 30.0 °F 22.4 °F 24.8 °F 81% 29.72 in 10.0 mi ENE 8.1 mph - N/A   Mostly Cloudy
8:15 AM 30.6 °F 24.7 °F 23.9 °F 76% 29.72 in 10.0 mi East 5.8 mph - N/A   Clear
8:35 AM 30.7 °F 24.9 °F 21.6 °F 69% 29.72 in 10.0 mi East 5.8 mph - N/A   Mostly Cloudy
8:55 AM 31.1 °F 22.4 °F 22.1 °F 69% 29.66 in 10.0 mi East 10.4 mph 17.3 mph N/A   Overcast
9:15 AM 31.6 °F 25.1 °F 23.4 °F 71% 29.67 in 10.0 mi East 6.9 mph - N/A   Overcast
9:35 AM 32.0 °F 24.8 °F 24.3 °F 73% 29.70 in 10.0 mi NE 8.1 mph - N/A   Overcast
9:55 AM 32.0 °F 27.5 °F 25.3 °F 76% 29.71 in 5.0 mi ENE 4.6 mph - N/A Snow Light Snow
10:15 AM 31.6 °F 24.4 °F 25.5 °F 78% 29.69 in 3.0 mi East 8.1 mph - N/A Snow Light Snow
10:35 AM 31.6 °F 25.1 °F 25.5 °F 78% 29.70 in 7.0 mi ENE 6.9 mph - N/A Snow Light Snow
10:55 AM 30.2 °F 25.4 °F 25.5 °F 83% 29.71 in 1.0 mi East 4.6 mph - N/A Snow Light Snow
11:15 AM 29.1 °F 24.1 °F 27.1 °F 92% 29.70 in 0.2 mi ENE 4.6 mph - 0.01 in Snow Heavy Snow
11:35 AM 28.4 °F 19.7 °F 26.6 °F 93% 29.69 in 0.5 mi NE 9.2 mph - 0.02 in Snow Light Snow
11:55 AM 27.5 °F 21.1 °F 25.7 °F 93% 29.67 in 0.5 mi ENE 5.8 mph - 0.03 in Snow Light Snow
12:15 PM 27.3 °F 19.9 °F 25.3 °F 92% 29.70 in 1.8 mi North 6.9 mph - 0.01 in Snow Light Snow
12:35 PM 27.5 °F 19.3 °F 24.8 °F 90% 29.68 in 5.0 mi NE 8.1 mph - 0.01 in   Overcast
12:55 PM 27.5 °F 18.6 °F 24.8 °F 90% 29.66 in 7.0 mi ENE 9.2 mph - 0.01 in   Overcast
1:15 PM 27.9 °F 19.1 °F 25.7 °F 92% 29.67 in 2.5 mi NE 9.2 mph - N/A   Overcast
1:35 PM 28.0 °F 19.3 °F 26.4 °F 94% 29.68 in 1.8 mi NE 9.2 mph - N/A   Overcast
1:55 PM 28.4 °F 19.1 °F 27.0 °F 94% 29.69 in 1.0 mi North 10.4 mph - N/A   Overcast
2:15 PM 28.6 °F 18.2 °F 27.3 °F 95% 29.69 in 1.2 mi North 12.7 mph - N/A   Overcast
2:35 PM 28.0 °F 16.5 °F 26.4 °F 94% 29.69 in 1.5 mi North 15.0 mph - N/A   Overcast
2:55 PM 27.5 °F 15.4 °F 25.7 °F 93% 29.71 in 2.0 mi North 16.1 mph - N/A   Overcast
3:15 PM 25.7 °F 13.1 °F 23.9 °F 93% 29.74 in 2.0 mi North 16.1 mph - N/A   Overcast
3:35 PM 25.3 °F 13.1 °F 23.5 °F 93% 29.76 in 2.5 mi North 15.0 mph - N/A   Overcast
3:55 PM 25.3 °F 13.6 °F 23.5 °F 93% 29.77 in 1.5 mi North 13.8 mph - N/A   Overcast
4:15 PM 25.2 °F 12.4 °F 23.4 °F 93% 29.79 in 1.5 mi North 16.1 mph 19.6 mph N/A   Overcast
4:35 PM 24.6 °F 11.7 °F 22.8 °F 93% 29.80 in 1.5 mi North 16.1 mph 21.9 mph N/A Snow Light Snow
4:55 PM 24.6 °F 11.3 °F 22.8 °F 93% 29.82 in 1.8 mi NNW 17.3 mph - N/A Snow Light Snow
5:15 PM 24.3 °F 10.4 °F 21.9 °F 91% 29.84 in 2.0 mi North 18.4 mph 26.5 mph N/A Snow Light Snow
5:35 PM 23.9 °F 11.7 °F 22.1 °F 93% 29.85 in 2.0 mi NNW 13.8 mph - N/A Snow Light Snow
5:55 PM 23.9 °F 11.2 °F 21.7 °F 91% 29.86 in 7.0 mi NNW 15.0 mph - N/A Snow Light Snow
6:15 PM 23.9 °F 13.5 °F 20.8 °F 88% 29.88 in 7.0 mi NNW 10.4 mph 23.0 mph N/A Snow Light Snow
6:35 PM 23.7 °F 12.1 °F 20.3 °F 87% 29.89 in 7.0 mi NNW 12.7 mph 18.4 mph N/A Snow Light Snow
6:55 PM 23.5 °F 9.4 °F 20.3 °F 87% 29.90 in 10.0 mi NNW 18.4 mph - N/A   Overcast
7:15 PM 23.0 °F 9.6 °F 19.4 °F 86% 29.92 in 10.0 mi NW 16.1 mph 23.0 mph N/A   Overcast
7:35 PM 21.9 °F 7.8 °F 18.0 °F 85% 29.93 in 10.0 mi NW 17.3 mph 23.0 mph N/A   Overcast
7:55 PM 20.5 °F 6.9 °F 15.6 °F 81% 29.95 in 10.0 mi NW 15.0 mph 21.9 mph N/A   Scattered Clouds
8:15 PM 19.8 °F 6.5 °F 14.9 °F 81% 29.96 in 10.0 mi NW 13.8 mph 20.7 mph N/A   Clear
8:35 PM 19.2 °F 6.4 °F 14.7 °F 83% 29.97 in 10.0 mi NW 12.7 mph - N/A   Clear
8:55 PM 18.5 °F 6.1 °F 14.0 °F 83% 29.98 in 10.0 mi NW 11.5 mph - N/A   Clear
9:15 PM 18.1 °F 5.0 °F 14.0 °F 84% 29.99 in 10.0 mi NW 12.7 mph 18.4 mph N/A   Clear
9:35 PM 18.0 °F 5.4 °F 13.1 °F 81% 29.99 in 10.0 mi NW 11.5 mph 17.3 mph N/A   Clear
9:55 PM 17.4 °F 4.1 °F 12.2 °F 80% 30.00 in 10.0 mi NNW 12.7 mph - N/A   Clear
10:15 PM 17.2 °F 6.0 °F 11.7 °F 79% 30.00 in 10.0 mi NNW 9.2 mph 17.3 mph N/A   Clear
10:35 PM 16.3 °F 4.1 °F 11.3 °F 81% 30.01 in 10.0 mi NW 10.4 mph - N/A   Clear
10:55 PM 16.2 °F 3.9 °F 10.4 °F 78% 30.02 in 10.0 mi NNW 10.4 mph - N/A   Clear
11:15 PM 14.9 °F 4.0 °F 9.9 °F 80% 30.03 in 10.0 mi NW 8.1 mph - N/A   Clear
11:35 PM 14.9 °F 2.3 °F 9.5 °F 79% 30.05 in 10.0 mi NW 10.4 mph - N/A   Clear
11:55 PM 14.2 °F 0.7 °F 8.8 °F 79% 30.04 in 10.0 mi NNW 11.5 mph - N/A   Clear